Location: Palomar Mountain Lodge
(33.3110°N, 116.8495°W)
Time: 01:51:14
(UTC-08:00)

Daily predictions for brighter satellites

Satellite Brightness Start Highest point End
(mag) Time Altitude Azimuth Time Altitude Azimuth Time Altitude Azimuth
CZ-3 R/B 4.4 02:22:27 10° SW 02:53:00 36° S 03:01:43 10° ESE
Cosmos 2184 Rocket 4.1 04:04:34 10° S 04:10:40 70° E 04:16:49 10° N
Cosmos 1536 Rocket 4.3 04:20:25 51° ESE 04:20:25 51° ESE 04:24:10 10° SSE
Cosmos 1943 4.3 04:17:08 10° S 04:22:22 42° ESE 04:27:39 10° NE
Cosmos 921 Rocket 3.7 04:24:13 54° SE 04:24:13 54° SE 04:27:48 10° SSE
Meteor 1-18 Rocket 4.2 04:26:08 61° NNW 04:27:14 84° W 04:33:08 10° S
Feng Yun 1-1 Rocket 4.0 04:25:19 10° N 04:30:52 77° WNW 04:36:16 10° SSW
Thor Agena Rocket 3.4 04:30:04 10° S 04:34:45 69° SW 04:34:45 69° SW
Okean 1 Rocket 3.8 04:32:28 10° S 04:36:44 52° E 04:40:59 10° NNE
Cosmos 2056 Rocket 3.8 04:40:01 26° N 04:42:51 63° ENE 04:47:53 10° SSE
PSLV R/B 4.5 04:44:43 38° NE 04:44:43 38° NE 04:47:17 10° E
Cosmos 1238 Rocket 3.7 04:43:22 53° NW 04:44:14 60° W 04:50:20 10° S
COSMO-SKYMED 1 3.8 04:40:21 10° SE 04:44:23 40° ENE 04:48:27 10° N
Cosmos 1610 Rocket 4.3 04:40:29 10° S 04:46:38 83° W 04:52:54 10° N
Cosmos 1602 3.7 04:47:42 10° S 04:51:38 86° E 04:55:36 10° N
Cosmos 44 Rocket 3.5 04:52:43 49° WNW 04:52:43 49° WNW 04:57:42 10° NNE
Ariane Rocket 3.8 04:50:44 10° NNE 04:55:40 53° E 05:00:35 10° S
Cosmos 1624 Rocket 3.9 04:53:13 26° NNW 04:56:15 86° WSW 05:01:33 10° SSE
ASTRO E2 3.6 04:56:26 33° SSW 04:57:38 43° SSE 05:01:28 10° E
Cosmos 1300 Rocket 3.5 04:56:26 10° SSW 05:00:47 59° W 05:05:07 10° N
Cosmos 1371 Rocket 4.0 04:59:26 34° NW 05:01:34 60° WSW 05:06:40 10° S
USA 215 3.2 04:56:03 10° NE 05:02:27 61° NW 05:07:35 17° WSW
Lacrosse 5 2.6 05:03:19 32° NW 05:03:19 32° NW 05:07:40 10° NNE
Cosmos 192 4.5 05:00:14 19° SW 05:03:32 46° WNW 05:08:15 10° N
Okean 1-7 Rocket 4.0 04:59:55 10° N 05:04:15 60° E 05:08:33 10° SSE
USA 32 4.4 05:05:03 33° NW 05:06:34 41° W 05:11:26 10° SSW
Okean 1 4.1 05:08:31 33° WSW 05:08:31 33° WSW 05:11:27 10° SSW
Meteor 1-19 Rocket 4.4 05:03:23 10° N 05:09:13 77° E 05:14:56 10° SSE
SKYMED 3 4.5 05:10:02 10° SSE 05:14:22 86° WSW 05:18:43 10° NNW
Meteor 1-11 Rocket 3.7 05:09:01 10° SSW 05:14:50 67° W 05:20:34 10° N
Cosmos 1346 Rocket 3.4 05:17:06 32° W 05:17:06 32° W 05:20:32 10° SSW
Tiangong 2 3.1 05:17:36 17° N 05:18:08 18° NNE 05:20:22 10° ENE
Nadezhda 3 Rocket 4.0 05:18:06 10° N 05:24:27 75° W 05:30:46 10° S
Cosmos 2084 3.3 05:22:13 10° SSW 05:26:09 76° ESE 05:29:57 10° NE
CSL-04 Rocket 3.7 05:22:06 10° NNE 05:27:40 89° ESE 05:33:07 10° SSW
Meteor 1-13 Rocket 4.4 05:24:03 10° NNW 05:29:50 55° W 05:35:34 10° S
Cosmos 1452 Rocket 3.7 05:26:48 10° NNW 05:32:05 75° ENE 05:37:19 10° SSE
SKYMED 2 3.7 05:28:12 10° S 05:32:24 50° W 05:36:37 10° NNW
USA 129 4.0 05:30:49 10° SE 05:32:34 24° ENE 05:34:24 10° NNE
CSL-04 Debris 4.2 05:28:22 10° NNE 05:33:51 86° ESE 05:39:20 10° SSW
Meteor 1-23 Rocket 4.3 05:29:12 10° N 05:34:45 78° E 05:40:18 10° SSE
Cosmos 962 Rocket 4.5 05:28:50 10° SSW 05:34:53 61° W 05:41:03 10° N
GPS 2-05 Rocket1 3.8 05:39:34 18° W 05:41:46 38° SSW 05:45:07 10° SE
Meteor 2-4 Rocket 3.7 05:36:59 10° NNW 05:42:32 75° W 05:48:14 10° S
Okean 2 3.9 05:39:12 10° N 05:43:20 64° E 05:47:25 10° SSE
NOSS 3-1 (C) 4.4 05:39:17 10° S 05:44:44 50° ESE 05:50:40 10° NE
Cosmos 2369 Rocket 2.2 05:39:22 10° NNW 05:45:04 72° WSW 05:50:42 10° SSE
Cosmos 2341 Rocket 4.2 05:40:29 10° SSW 05:46:31 48° W 05:52:33 10° N
Cosmos 44 4.3 05:42:18 10° WSW 05:46:57 29° NW 05:51:30 10° N
Meteor 1-5 Rocket 4.0 05:42:06 10° SSW 05:47:28 74° W 05:52:46 10° N
OAO 3 Copernicus 4.3 05:44:47 15° WNW 05:49:01 82° SSW 05:54:06 10° ESE
Cosmos 1536 3.7 05:47:03 10° SW 05:50:27 27° W 05:53:54 10° NNW
SMAP 3.8 05:49:33 10° NNE 05:54:09 59° E 05:58:42 10° S
CZ-4 R/B 1.3 05:53:27 10° NNE 05:57:22 88° WNW 06:01:14 10° SSW
Cosmos 1633 4.4 05:55:59 10° WSW 05:57:36 12° WNW 05:59:12 10° NW
Cosmos 1025 Rocket 3.4 05:55:01 10° NNW 05:59:10 44° W 06:03:16 10° SSW
Cosmos 158 Rocket 4.2 05:55:21 10° SSW 06:00:34 81° ESE 06:05:57 10° NNE
Skynet4D Del rocket 4.5 05:58:28 10° WSW 06:03:30 42° S 06:08:37 10° ESE
PAYLOAD A 4.2 05:59:50 10° N 06:05:11 67° WNW 06:10:33 10° SSW
YAOGAN 1 2.8 06:01:46 10° NNE 06:06:06 76° ESE 06:10:24 10° S
Cosmos 1943 4.3 06:02:15 10° WSW 06:06:32 22° WNW 06:10:53 10° N
Cosmos 1269 Rocket 4.2 06:02:34 10° SW 06:07:40 51° WNW 06:12:49 10° N
SJ-12 3.9 06:08:38 10° N 06:12:45 65° WNW 06:16:50 10° SSW
USA 229 DEB 4.2 06:10:01 10° WSW 06:16:17 37° NW 06:22:39 10° NNE
USA 229 4.2 06:10:07 10° WSW 06:16:23 37° NW 06:22:45 10° NNE
